Weather History for KCNB - October, 2013

Change the Weather History Date:

Sunday, October 20, 2013

  Actual Average Record
Temperature  
Mean Temperature 41 °F -  
Max Temperature 48 °F - - ()
Min Temperature 34 °F - - ()
Degree Days  
Heating Degree Days 24    
Moisture  
Dew Point 36 °F    
Average Humidity 88    
Maximum Humidity 96    
Minimum Humidity 72    
Precipitation  
Precipitation 0.01 in - - ()
Sea Level Pressure  
Sea Level Pressure 29.75 in    
Wind  
Wind Speed 10 mph (NW)    
Max Wind Speed 23 mph    
Max Gust Speed 32 mph    
Visibility 9 miles    
Events Rain    
T = Trace of Precipitation, MM = Missing Value Source: NWS Daily Summary

Daily Weather History Graph

Daily Weather History Graph

Search for Another Location

Airport or City:

Trip Planner

Search our weather history database for the weather conditions in past years. The results will help you decide how hot, cold, wet, or windy it might be!

Date:

Astronomy

Oct. 20, 2013 Rise Set
Actual Time 7:47 AM CDT 6:31 PM CDT
Civil Twilight 7:17 AM CDT 7:01 PM CDT
Nautical Twilight 6:43 AM CDT 7:35 PM CDT
Astronomical Twilight 6:09 AM CDT 8:08 PM CDT
Moon 7:36 PM CDT (10/20) 9:30 AM CDT (10/20)
Length of Visible Light 11h 43m
Length of Day
10h 44m
Full, 97% of the Moon is Illuminated
Oct 20
Full
Oct 26
Last Quarter
Nov 3
New
Nov 9
First Quarter
Nov 17
Full

Hourly Weather History & Observations

Time (CDT) Temp. Windchill Dew Point Humidity Pressure Visibility Wind Dir Wind Speed Gust Speed Precip Events Conditions
12:13 AM 37.4 °F 31.4 °F 30.4 °F 76% 29.76 in 10.0 mi SSE 8.1 mph - N/A   Overcast
12:34 AM 37.6 °F 32.3 °F 30.6 °F 76% 29.76 in 10.0 mi SSE 6.9 mph - N/A   Overcast
12:54 AM 37.8 °F 34.2 °F 31.5 °F 78% 29.76 in 10.0 mi SSE 4.6 mph - N/A Rain Light Rain
1:14 AM 37.4 °F 32.1 °F 32.2 °F 81% 29.75 in 7.0 mi SSE 6.9 mph - N/A Rain Light Rain
1:34 AM 36.9 °F 31.4 °F 32.9 °F 86% 29.74 in 7.0 mi SSE 6.9 mph - N/A Rain Rain
1:54 AM 36.7 °F 32.0 °F 33.4 °F 88% 29.74 in 7.0 mi SSE 5.8 mph - N/A Rain Light Rain
2:14 AM 36.7 °F 32.9 °F 34.0 °F 90% 29.73 in 10.0 mi SE 4.6 mph - 0.01 in   Drizzle
2:33 AM 36.5 °F 30.3 °F 34.2 °F 91% 29.72 in 10.0 mi ESE 8.1 mph - 0.01 in   Light Drizzle
2:54 AM 36.5 °F 29.7 °F 34.3 °F 92% 29.71 in 10.0 mi SE 9.2 mph - 0.01 in   Overcast
3:14 AM 36.5 °F 31.0 °F 34.3 °F 92% 29.70 in 10.0 mi SE 6.9 mph - N/A   Overcast
3:34 AM 36.5 °F 31.0 °F 34.7 °F 93% 29.69 in 10.0 mi SE 6.9 mph - N/A   Light Drizzle
3:54 AM 36.7 °F 32.0 °F 34.7 °F 93% 29.68 in 10.0 mi SE 5.8 mph - N/A   Overcast
4:14 AM 36.7 °F 32.0 °F 35.1 °F 94% 29.67 in 10.0 mi SE 5.8 mph - N/A   Overcast
4:34 AM 36.9 °F 32.2 °F 34.9 °F 93% 29.66 in 10.0 mi SE 5.8 mph - N/A   Overcast
4:53 AM 36.9 °F 33.1 °F 35.1 °F 93% 29.66 in 10.0 mi SE 4.6 mph - N/A   Overcast
5:14 AM 36.9 °F 30.7 °F 35.1 °F 93% 29.65 in 10.0 mi SE 8.1 mph - N/A   Overcast
5:34 AM 36.7 °F 31.2 °F 35.1 °F 94% 29.64 in 10.0 mi SE 6.9 mph - N/A   Light Drizzle
5:53 AM 36.9 °F 30.7 °F 35.2 °F 94% 29.63 in 10.0 mi SE 8.1 mph - N/A Rain Light Rain
6:14 AM 36.9 °F 32.2 °F 35.2 °F 94% 29.63 in 7.0 mi SE 5.8 mph - N/A Rain Light Rain
6:34 AM 36.9 °F 31.4 °F 35.6 °F 95% 29.62 in 10.0 mi SE 6.9 mph - N/A   Drizzle
6:53 AM 36.9 °F 30.7 °F 35.6 °F 95% 29.61 in 10.0 mi SE 8.1 mph - N/A Rain Light Rain
7:14 AM 36.9 °F 31.4 °F 35.6 °F 95% 29.60 in 10.0 mi SE 6.9 mph - N/A   Light Drizzle
7:34 AM 36.9 °F 32.2 °F 35.6 °F 95% 29.61 in 10.0 mi SE 5.8 mph - N/A   Overcast
7:54 AM 37.4 °F 32.1 °F 35.8 °F 94% 29.61 in 10.0 mi SE 6.9 mph - N/A   Overcast
8:14 AM 36.9 °F 33.1 °F 35.8 °F 96% 29.60 in 10.0 mi SE 4.6 mph - N/A   Mostly Cloudy
8:34 AM 37.8 °F 34.2 °F 36.1 °F 94% 29.60 in 10.0 mi SE 4.6 mph - N/A   Scattered Clouds
8:54 AM 38.5 °F 35.0 °F 36.1 °F 91% 29.61 in 10.0 mi East 4.6 mph - N/A   Clear
9:14 AM 42.4 °F - 37.9 °F 84% 29.61 in 10.0 mi Calm Calm - N/A   Mostly Cloudy
9:34 AM 45.3 °F 39.7 °F 40.1 °F 82% 29.60 in 10.0 mi West 11.5 mph 16.1 mph N/A   Mostly Cloudy
9:53 AM 46.8 °F - 41.5 °F 82% 29.60 in 10.0 mi West 20.7 mph 26.5 mph N/A   Overcast
10:14 AM 46.8 °F - 42.3 °F 84% 29.60 in 10.0 mi West 19.6 mph 24.2 mph N/A   Overcast
10:34 AM 47.3 °F - 42.4 °F 83% 29.59 in 10.0 mi West 19.6 mph 25.3 mph N/A   Overcast
10:53 AM 47.7 °F - 42.6 °F 83% 29.60 in 10.0 mi WNW 18.4 mph 21.9 mph N/A   Overcast
11:14 AM 48.2 °F - 42.6 °F 81% 29.61 in 10.0 mi WNW 23.0 mph 32.2 mph N/A   Overcast
11:34 AM 47.7 °F - 42.8 °F 83% 29.62 in 10.0 mi WNW 16.1 mph 25.3 mph N/A   Overcast
11:54 AM 47.7 °F - 42.8 °F 83% 29.63 in 10.0 mi WNW 17.3 mph 29.9 mph N/A Rain Light Rain
12:14 PM 47.3 °F - 43.0 °F 85% 29.64 in 10.0 mi WNW 19.6 mph 27.6 mph N/A   Light Drizzle
12:34 PM 47.3 °F - 43.5 °F 87% 29.65 in 10.0 mi WNW 16.1 mph 23.0 mph N/A   Light Drizzle
12:54 PM 47.7 °F - 43.0 °F 84% 29.66 in 10.0 mi NW 16.1 mph 25.3 mph N/A   Light Drizzle
1:14 PM 47.3 °F - 42.4 °F 83% 29.66 in 10.0 mi NW 16.1 mph 23.0 mph N/A Rain Light Rain
1:34 PM 47.5 °F - 42.8 °F 84% 29.66 in 10.0 mi NW 13.8 mph - N/A   Overcast
1:54 PM 45.7 °F 38.0 °F 43.2 °F 91% 29.68 in 4.0 mi NNW 19.6 mph 25.3 mph N/A Rain Rain
2:13 PM 42.8 °F 34.0 °F 40.6 °F 92% 29.69 in 3.0 mi NW 20.7 mph 28.8 mph N/A Rain Light Rain
2:34 PM 41.7 °F 33.7 °F 39.7 °F 93% 29.71 in 7.0 mi NW 16.1 mph 24.2 mph N/A   Overcast
2:54 PM 41.0 °F 31.6 °F 38.5 °F 91% 29.73 in 10.0 mi NW 20.7 mph 29.9 mph N/A   Overcast
3:14 PM 40.5 °F 31.8 °F 37.6 °F 89% 29.74 in 10.0 mi NW 17.3 mph 24.2 mph N/A   Overcast
3:34 PM 40.5 °F 32.5 °F 36.7 °F 86% 29.76 in 10.0 mi NW 15.0 mph 28.8 mph N/A   Overcast
3:54 PM 40.5 °F 30.9 °F 36.1 °F 85% 29.77 in 10.0 mi NW 20.7 mph 29.9 mph N/A   Overcast
4:13 PM 40.1 °F 30.5 °F 36.0 °F 85% 29.78 in 10.0 mi NNW 20.7 mph 28.8 mph N/A   Overcast
4:34 PM 40.1 °F 30.7 °F 35.6 °F 84% 29.80 in 10.0 mi NW 19.6 mph 26.5 mph N/A   Overcast
4:54 PM 39.4 °F 29.8 °F 35.6 °F 86% 29.82 in 10.0 mi NW 19.6 mph 31.1 mph N/A   Overcast
5:13 PM 39.4 °F 30.1 °F 35.1 °F 84% 29.83 in 10.0 mi NW 18.4 mph 24.2 mph N/A   Overcast
5:34 PM 39.4 °F 30.4 °F 35.6 °F 86% 29.84 in 7.0 mi NNW 17.3 mph 23.0 mph N/A   Drizzle
5:54 PM 39.2 °F 30.5 °F 36.0 °F 88% 29.85 in 10.0 mi NNW 16.1 mph 21.9 mph N/A   Mostly Cloudy
6:13 PM 39.2 °F 31.2 °F 35.6 °F 87% 29.87 in 7.0 mi NNW 13.8 mph 21.9 mph N/A Rain Light Rain
6:34 PM 38.3 °F 29.0 °F 35.4 °F 89% 29.88 in 10.0 mi NNW 17.3 mph 20.7 mph N/A   Overcast
6:54 PM 37.9 °F 28.9 °F 35.2 °F 90% 29.89 in 10.0 mi NNW 16.1 mph 20.7 mph N/A   Overcast
7:13 PM 37.8 °F 30.2 °F 35.6 °F 92% 29.91 in 7.0 mi NNW 11.5 mph 16.1 mph N/A Rain Light Rain
7:34 PM 37.9 °F 30.9 °F 35.1 °F 89% 29.92 in 10.0 mi NNW 10.4 mph - N/A   Overcast
7:54 PM 37.8 °F 30.7 °F 35.1 °F 90% 29.93 in 10.0 mi NW 10.4 mph 19.6 mph N/A   Overcast
8:14 PM 37.0 °F 28.9 °F 34.2 °F 89% 29.95 in 5.0 mi NW 12.7 mph 21.9 mph N/A Rain Light Rain
8:34 PM 36.5 °F 29.2 °F 34.5 °F 93% 29.95 in 10.0 mi NW 10.4 mph - N/A   Overcast
8:54 PM 35.6 °F 27.5 °F 32.9 °F 90% 29.96 in 10.0 mi NW 11.5 mph 18.4 mph N/A Rain Light Rain
9:14 PM 35.8 °F 29.4 °F 32.9 °F 89% 29.97 in 10.0 mi NNW 8.1 mph 17.3 mph N/A   Overcast
9:34 PM 35.8 °F 29.4 °F 33.3 °F 91% 29.98 in 10.0 mi WNW 8.1 mph - N/A   Overcast
9:53 PM 35.6 °F 29.2 °F 32.9 °F 90% 29.98 in 10.0 mi WNW 8.1 mph - N/A   Overcast
10:14 PM 35.6 °F 28.6 °F 32.4 °F 88% 29.98 in 10.0 mi NW 9.2 mph - N/A   Overcast
10:34 PM 35.1 °F 25.9 °F 31.5 °F 87% 29.98 in 10.0 mi NW 13.8 mph 17.3 mph N/A   Overcast
10:54 PM 34.9 °F 26.2 °F 29.8 °F 82% 29.99 in 10.0 mi NW 12.7 mph 17.3 mph N/A   Overcast
11:14 PM 34.9 °F 26.6 °F 29.7 °F 81% 29.99 in 10.0 mi WNW 11.5 mph - N/A   Overcast
11:34 PM 34.9 °F 27.7 °F 27.7 °F 75% 29.99 in 10.0 mi NW 9.2 mph - N/A   Overcast
11:54 PM 34.7 °F 26.4 °F 26.4 °F 72% 29.99 in 10.0 mi NW 11.5 mph 23.0 mph N/A   Overcast